SALSAT

Last updated on Tue Oct 21 2025 00:03:13 GMT+0000 (Coordinated Universal Time)

1 46495U 20068K 25293.60298301 .00013916 00000+0 55894-3 0 9997 2 46495 97.8745 278.0733 0012882 65.4082 294.8496 15.25003011278788
UTC large
Height (km)
Speed (km/s)
/
Latitude / Longitude
Inclination (degrees)
Orbital Period (minutes)
Azimuth
Elevation
Range (km)
Doppler Factor

Next 0 passes for location: London (51.5072 / 0.1276)

Sorry there are no passes over London.